GW0029 Weather Reports


Display with metric or nautical units.
time (UTC)temp
F
wind
direction
speed
MPH
gust
MPH
rain 1hr
in
rain 24hr
in
rain mn
in
humidity
%
barometer
mb
20260903200005 62 273 8.0 15.0 0.00 0.58 0.58 100 1002.9
20260903195503 62 254 7.0 15.0 0.00 0.58 0.58 100 1002.9
20260903195005 62 270 7.0 19.0 0.00 0.58 0.58 100 1002.9
20260903194503 62 276 6.0 19.0 0.00 0.58 0.58 100 1002.9
20260903194004 62 284 6.0 12.0 0.00 0.58 0.58 100 1002.9
20260903193504 62 287 6.0 12.0 0.00 0.58 0.58 100 1002.9
20260903193004 62 279 7.0 15.0 0.00 0.51 0.51 100 1002.9
20260903192504 62 279 8.0 15.0 0.00 0.51 0.51 100 1002.9
20260903192004 62 284 7.0 12.0 0.00 0.51 0.51 100 1002.9
20260903191504 62 283 5.0 12.0 0.00 0.51 0.51 100 1002.9
20260903190005 62 244 1.0 9.0 0.00 0.51 0.51 100 1001.9
20260903185503 62 277 0.0 4.0 0.00 0.51 0.51 100 1001.9
20260903185004 62 207 1.0 4.0 0.00 0.51 0.51 100 1001.9
20260903184504 62 251 3.0 10.0 0.00 0.51 0.51 100 1001.9
20260903184004 62 263 3.0 10.0 0.00 0.51 0.51 100 1002.9
20260903183503 62 283 2.0 7.0 0.00 0.51 0.51 100 1002.9
20260903183005 62 280 3.0 8.0 0.00 0.51 0.51 100 1002.9
20260903182503 62 251 3.0 8.0 0.00 0.51 0.51 100 1002.9
20260903182005 63 239 2.0 8.0 0.00 0.51 0.51 100 1002.9
20260903181503 63 236 1.0 8.0 0.00 0.51 0.51 100 1002.9
20260903181005 63 268 1.0 8.0 0.00 0.51 0.51 100 1002.9
20260903180503 63 247 2.0 8.0 0.00 0.51 0.51 100 1002.9
20260903180005 63 238 2.0 6.0 0.00 0.51 0.51 100 1002.9
20260903175504 63 230 2.0 6.0 0.00 0.51 0.51 100 1001.9
20260903175005 63 222 1.0 6.0 0.00 0.51 0.51 100 1001.9
20260903174503 63 231 0.0 4.0 0.00 0.51 0.51 100 1001.9
20260903174005 63 217 1.0 4.0 0.00 0.51 0.51 100 1002.9
20260903173503 63 206 1.0 5.0 0.00 0.51 0.51 100 1002.9
20260903173005 63 203 2.0 7.0 0.00 0.51 0.51 100 1002.9
20260903172503 63 198 2.0 7.0 0.00 0.51 0.51 100 1002.9
20260903172005 63 195 2.0 6.0 0.00 0.51 0.51 100 1002.9
20260903171504 63 203 1.0 6.0 0.00 0.51 0.51 100 1002.9
20260903171005 63 219 0.0 4.0 0.00 0.51 0.51 100 1002.9
20260903170503 63 221 0.0 4.0 0.00 0.51 0.51 100 1002.9
20260903170005 63 213 0.0 5.0 0.00 0.51 0.51 97 1002.9
20260903165503 63 228 0.0 5.0 0.00 0.51 0.51 97 1002.9
20260903165004 63 237 0.0 5.0 0.00 0.51 0.51 97 1002.9
20260903164504 63 0 0.0 0.0 0.00 0.51 0.51 97 1002.9
20260903163503 63 209 1.0 5.0 0.00 0.51 0.51 97 1002.9
20260903163005 63 198 3.0 6.0 0.00 0.51 0.51 97 1002.9
20260903162503 63 196 3.0 6.0 0.00 0.46 0.46 97 1002.9
20260903162005 63 196 2.0 5.0 0.00 0.46 0.46 97 1002.9
20260903161503 63 201 4.0 8.0 0.00 0.46 0.46 97 1002.9
20260903161004 63 201 4.0 8.0 0.00 0.46 0.46 97 1003.9
20260903160503 63 188 2.0 7.0 0.00 0.46 0.46 97 1003.9
20260903160004 63 191 2.0 6.0 0.00 0.46 0.46 97 1003.9
20260903155504 63 190 3.0 10.0 0.00 0.46 0.46 97 1003.9
20260903155004 62 188 2.0 10.0 0.00 0.46 0.46 97 1003.9
20260903154504 62 149 1.0 5.0 0.00 0.46 0.46 97 1003.9
20260903154004 62 131 2.0 5.0 0.00 0.46 0.46 96 1003.9
20260903153504 62 142 1.0 4.0 0.00 0.46 0.46 97 1003.9
20260903153004 62 157 0.0 3.0 0.00 0.46 0.46 96 1003.9
20260903152504 62 116 1.0 4.0 0.00 0.46 0.46 96 1004.9
20260903152004 62 112 2.0 5.0 0.00 0.46 0.46 96 1004.9
20260903151005 62 121 2.0 6.0 0.00 0.46 0.46 96 1002.9
20260903150503 62 116 3.0 7.0 0.00 0.41 0.41 96 1002.9
20260903150005 62 131 2.0 7.0 0.00 0.41 0.41 96 1002.9
20260903145503 62 118 3.0 6.0 0.00 0.41 0.41 96 1002.9
20260903145005 62 100 4.0 6.0 0.00 0.41 0.41 96 1002.9
20260903144503 62 103 5.0 6.0 0.00 0.41 0.41 96 1002.9
20260903144005 61 104 3.0 6.0 0.00 0.36 0.36 96 1004.9
20260903143503 62 137 1.0 5.0 0.00 0.36 0.36 96 1004.9
20260903143004 62 152 1.0 4.0 0.00 0.36 0.36 96 1004.9
20260903142503 62 112 0.0 2.0 0.00 0.31 0.31 95 1004.9
20260903142004 62 112 0.0 3.0 0.00 0.31 0.31 95 1004.9
20260903140504 62 149 1.0 5.0 0.00 0.31 0.31 95 1004.9
20260903140004 62 162 1.0 5.0 0.00 0.31 0.31 95 1004.9
20260903135503 62 173 0.0 4.0 0.00 0.26 0.26 95 1004.9
20260903134005 62 167 2.0 7.0 0.00 0.26 0.26 95 1005.9
20260903133004 62 167 1.0 5.0 0.00 0.26 0.26 95 1005.9
20260903132504 62 169 1.0 4.0 0.00 0.21 0.21 95 1005.9
20260903132004 62 175 1.0 4.0 0.00 0.21 0.21 95 1005.9
20260903131005 62 175 3.0 11.0 0.00 0.21 0.21 95 1004.9
20260903130503 62 169 3.0 11.0 0.00 0.21 0.21 95 1004.9
20260903130005 62 156 1.0 4.0 0.00 0.21 0.21 95 1004.9
20260903125503 62 142 0.0 3.0 0.00 0.21 0.21 94 1004.9
20260903125005 62 168 1.0 6.0 0.00 0.21 0.21 95 1004.9
20260903124503 62 184 3.0 7.0 0.00 0.21 0.21 94 1004.9
20260903124005 62 191 4.0 8.0 0.00 0.21 0.21 95 1005.9
20260903123504 62 195 4.0 8.0 0.00 0.21 0.21 95 1005.9
20260903123005 62 203 3.0 7.0 0.00 0.21 0.21 94 1005.9
20260903122504 62 190 3.0 8.0 0.00 0.21 0.21 94 1005.9
20260903121503 62 198 3.0 7.0 0.00 0.21 0.21 94 1005.9
20260903121004 62 203 3.0 7.0 0.00 0.21 0.21 94 1005.9
20260903114503 62 200 4.0 13.0 0.00 0.21 0.21 94 1005.9
20260903114005 63 197 2.0 5.0 0.00 0.21 0.21 94 1005.9
20260903113503 63 185 4.0 9.0 0.00 0.21 0.21 94 1005.9
20260903113005 63 179 6.0 14.0 0.00 0.26 0.21 94 1005.9
20260903112005 63 178 4.0 10.0 0.00 0.26 0.21 94 1006.9
20260903111503 63 190 3.0 6.0 0.00 0.26 0.21 94 1006.9
20260903111005 63 189 4.0 9.0 0.00 0.26 0.21 94 1006.9
20260903110503 62 185 4.0 9.0 0.00 0.26 0.21 94 1006.9
20260903110005 62 186 4.0 8.0 0.00 0.26 0.21 94 1006.9
20260903105503 63 190 5.0 11.0 0.00 0.26 0.21 94 1008.0
20260903105004 63 191 5.0 11.0 0.00 0.26 0.21 94 1008.0
20260903104504 63 192 4.0 8.0 0.00 0.26 0.21 94 1008.0
20260903104005 63 193 4.0 10.0 0.00 0.26 0.21 94 1008.0
20260903103504 62 189 4.0 10.0 0.00 0.26 0.21 93 1008.0
20260903102503 62 175 2.0 7.0 0.00 0.26 0.21 93 1008.0
20260903101004 61 117 1.0 5.0 0.00 0.26 0.21 93 1008.0
20260903100504 61 119 3.0 6.0 0.00 0.26 0.21 92 1008.0
20260903100004 61 128 3.0 6.0 0.00 0.20 0.15 91 1008.0
20260903095504 61 161 3.0 7.0 0.00 0.10 0.05 90 1006.9
20260903095004 61 172 4.0 9.0 0.00 0.10 0.05 90 1006.9
20260903094504 62 164 5.0 9.0 0.00 0.05 0.00 90 1006.9
20260903094004 62 165 3.0 8.0 0.00 0.05 0.00 90 1008.0
20260903093503 62 177 3.0 7.0 0.00 0.05 0.00 90 1008.0
20260903093004 62 176 3.0 7.0 0.00 0.05 0.00 90 1008.0
20260903092504 62 182 3.0 8.0 0.00 0.05 0.00 90 1008.0
20260903092004 62 183 4.0 8.0 0.00 0.05 0.00 90 1008.0
20260903091504 62 192 3.0 8.0 0.00 0.05 0.00 90 1008.0
20260903091005 61 213 1.0 5.0 0.00 0.05 0.00 90 1008.0
20260903090503 61 213 1.0 6.0 0.00 0.05 0.00 90 1008.0
20260903090005 61 209 3.0 7.0 0.00 0.05 0.00 90 1008.0
20260903085503 61 202 3.0 7.0 0.00 0.05 0.00 90 1009.0
20260903085005 61 197 4.0 7.0 0.00 0.05 0.00 90 1009.0
20260903084503 61 198 3.0 7.0 0.00 0.05 0.00 90 1009.0
20260903084005 61 197 3.0 6.0 0.00 0.05 0.00 90 1009.0
20260903081504 60 193 1.0 4.0 0.00 0.05 0.00 89 1009.0
20260903081004 60 198 0.0 3.0 0.00 0.05 0.00 89 1010.0
20260903080504 60 198 0.0 3.0 0.00 0.05 0.00 89 1010.0
20260903080006 60 183 1.0 5.0 0.00 0.05 0.00 89 1010.0
20260903075503 60 184 1.0 5.0 0.00 0.05 0.00 89 1010.0
20260903075004 60 190 2.0 6.0 0.00 0.05 0.00 89 1010.0
20260903073503 60 196 2.0 6.0 0.00 0.05 0.00 89 1010.0
20260903073004 60 198 2.0 6.0 0.00 0.05 0.00 89 1010.0
20260903072504 60 213 2.0 6.0 0.00 0.05 0.00 89 1010.0
20260903072004 60 216 1.0 6.0 0.00 0.05 0.00 89 1010.0
20260903070503 60 193 2.0 8.0 0.00 0.05 0.00 89 1010.0
20260903070005 59 186 2.0 8.0 0.00 0.05 0.00 89 1010.0
20260903065503 59 178 1.0 4.0 0.00 0.05 0.00 89 1010.0
20260903065005 59 200 0.0 3.0 0.00 0.05 0.00 89 1010.0
20260903064503 59 203 0.0 3.0 0.00 0.05 0.00 89 1010.0
20260903064005 59 233 1.0 5.0 0.00 0.05 0.00 89 1010.0
20260903063503 59 235 1.0 5.0 0.00 0.05 0.00 89 1010.0
20260903063004 59 201 1.0 4.0 0.00 0.05 0.00 89 1010.0
20260903062504 59 219 1.0 5.0 0.00 0.05 0.00 89 1010.0
20260903062004 59 223 1.0 5.0 0.00 0.05 0.00 89 1010.0
20260903061504 58 209 1.0 4.0 0.00 0.05 0.00 89 1010.0
20260903061005 58 245 1.0 5.0 0.00 0.05 0.00 90 1010.0
20260903060503 58 269 1.0 5.0 0.00 0.05 0.00 90 1010.0
20260903055503 57 270 1.0 5.0 0.00 0.05 0.00 90 1010.0
20260903055005 57 209 0.0 5.0 0.00 0.05 0.00 90 1010.0
20260903054503 57 229 1.0 5.0 0.00 0.05 0.00 90 1010.0
20260903054004 57 224 1.0 5.0 0.00 0.05 0.00 90 1009.0
20260903053504 57 208 1.0 6.0 0.00 0.05 0.00 90 1009.0
20260903053004 57 212 1.0 6.0 0.00 0.05 0.00 89 1009.0
20260903052504 56 219 0.0 4.0 0.00 0.05 0.00 89 1010.0
20260903052004 56 202 0.0 3.0 0.00 0.05 0.00 89 1010.0
20260903051503 56 181 0.0 3.0 0.00 0.05 0.00 89 1010.0
20260903051005 56 206 1.0 5.0 0.00 0.05 0.00 89 1010.0
20260903050503 56 235 1.0 5.0 0.00 0.05 0.00 89 1010.0
20260903050005 56 336 0.0 3.0 0.00 0.05 0.00 89 1010.0
20260903045503 55 261 1.0 6.0 0.00 0.05 0.00 89 1010.0
20260903044504 55 279 1.0 6.0 0.00 0.05 0.00 89 1010.0
20260903043503 54 337 0.0 2.0 0.00 0.05 0.00 89 1010.0
20260903043005 54 337 0.0 2.0 0.00 0.05 0.00 89 1010.0
20260903042503 54 295 0.0 1.0 0.00 0.05 0.00 89 1010.0
20260903042004 54 278 0.0 4.0 0.00 0.05 0.00 88 1010.0
20260903041005 54 239 1.0 6.0 0.00 0.05 0.00 88 1010.0
20260903035504 54 244 1.0 8.0 0.00 0.05 0.00 87 1011.0
20260903035004 54 253 1.0 8.0 0.00 0.05 0.00 87 1011.0
20260903034504 54 258 1.0 11.0 0.00 0.05 0.00 87 1011.0
20260903034004 54 259 1.0 11.0 0.00 0.05 0.00 87 1011.0
20260903033504 55 265 1.0 5.0 0.00 0.05 0.00 86 1011.0
20260903033004 54 227 0.0 5.0 0.00 0.05 0.00 86 1011.0
20260903032005 55 285 0.0 4.0 0.00 0.05 0.00 85 1011.0
20260903031503 55 290 1.0 5.0 0.00 0.05 0.00 85 1011.0
20260903030503 55 270 0.0 3.0 0.00 0.05 0.00 85 1011.0
20260903025005 55 283 2.0 7.0 0.00 0.05 0.00 84 1011.0
20260903024005 55 261 3.0 11.0 0.00 0.05 0.00 83 1011.0
20260903023503 55 250 2.0 6.0 0.00 0.05 0.00 83 1011.0
20260903022504 55 282 1.0 5.0 0.00 0.05 0.00 83 1011.0
20260903022005 55 255 2.0 8.0 0.00 0.05 0.00 82 1011.0
20260903021503 55 256 3.0 8.0 0.00 0.05 0.00 82 1011.0
20260903021004 55 256 3.0 10.0 0.00 0.05 0.00 82 1011.0
20260903020505 55 270 3.0 10.0 0.00 0.05 0.00 82 1011.0
20260903020004 56 292 3.0 7.0 0.00 0.05 0.00 82 1011.0
20260903015503 55 272 2.0 7.0 0.00 0.05 0.00 83 1012.0
20260903015004 55 266 2.0 6.0 0.00 0.05 0.00 82 1012.0
20260903014504 56 268 3.0 15.0 0.00 0.05 0.00 82 1012.0
20260903014004 56 280 4.0 15.0 0.00 0.05 0.00 81 1012.0
20260903013503 56 291 4.0 13.0 0.00 0.05 0.00 81 1012.0
20260903013005 56 290 3.0 10.0 0.00 0.05 0.00 82 1012.0
20260903012503 56 291 3.0 10.0 0.00 0.05 0.00 81 1012.0
20260903012005 56 271 5.0 17.0 0.00 0.05 0.00 81 1012.0
20260903011005 56 280 6.0 12.0 0.00 0.05 0.00 82 1012.0
20260903010504 56 277 7.0 14.0 0.00 0.05 0.00 82 1012.0
20260903010005 56 280 6.0 14.0 0.00 0.05 0.00 82 1012.0
20260903005503 56 283 5.0 14.0 0.00 0.05 0.00 81 1012.0
20260903005006 56 276 5.0 12.0 0.00 0.05 0.00 80 1012.0
20260903004504 56 274 5.0 10.0 0.00 0.05 0.00 81 1012.0
20260903004004 56 275 6.0 16.0 0.00 0.05 0.00 80 1012.0
20260903003504 56 270 6.0 16.0 0.00 0.05 0.00 80 1012.0
20260903003004 56 273 5.0 11.0 0.00 0.05 0.00 79 1012.0
20260903002504 56 281 5.0 11.0 0.00 0.05 0.00 79 1012.0
20260903002005 56 277 5.0 10.0 0.00 0.05 0.00 79 1012.0
20260903000005 57 265 7.0 17.0 0.00 0.05 0.00 78 1012.0
20260902235504 57 269 7.0 13.0 0.00 0.05 0.00 79 1012.0
20260902235005 57 280 6.0 11.0 0.00 0.05 0.00 79 1012.0
20260902234504 57 277 6.0 11.0 0.00 0.05 0.00 79 1012.0
20260902234004 57 271 7.0 11.0 0.00 0.05 0.00 79 1012.0
20260902233004 57 269 9.0 14.0 0.00 0.05 0.00 80 1012.0
20260902232504 57 270 7.0 14.0 0.00 0.05 0.00 81 1012.0
20260902232004 57 278 6.0 14.0 0.00 0.05 0.00 82 1012.0
20260902231504 57 272 6.0 11.0 0.00 0.05 0.00 82 1012.0
20260902231004 57 286 6.0 13.0 0.00 0.05 0.00 81 1012.0
20260902230503 57 285 7.0 13.0 0.00 0.05 0.00 80 1012.0
20260902230005 57 281 7.0 13.0 0.00 0.05 0.00 82 1012.0
20260902225504 57 288 6.0 13.0 0.00 0.05 0.00 82 1012.0
20260902225005 57 271 5.0 12.0 0.00 0.05 0.00 82 1012.0
20260902224503 57 263 5.0 12.0 0.00 0.05 0.00 81 1012.0
20260902224006 57 259 5.0 14.0 0.00 0.05 0.00 80 1011.0
20260902223004 57 278 4.0 11.0 0.00 0.05 0.00 83 1011.0
20260902222504 57 273 5.0 13.0 0.00 0.05 0.00 83 1012.0
20260902222005 57 264 6.0 15.0 0.00 0.05 0.00 82 1012.0
20260902221503 57 261 6.0 15.0 0.00 0.05 0.00 84 1012.0
20260902221005 57 270 7.0 14.0 0.00 0.05 0.00 83 1012.0
20260902220503 57 282 7.0 17.0 0.00 0.05 0.00 83 1012.0
20260902215503 57 272 5.0 10.0 0.00 0.05 0.05 85 1012.0
20260902215005 57 275 5.0 10.0 0.00 0.05 0.05 86 1012.0
20260902214503 57 269 4.0 10.0 0.00 0.05 0.05 86 1012.0
20260902214005 57 266 4.0 10.0 0.00 0.05 0.05 86 1012.0
20260902213503 57 266 6.0 11.0 0.00 0.05 0.05 87 1012.0
20260902213005 57 265 6.0 11.0 0.00 0.05 0.05 87 1012.0
20260902212503 57 271 6.0 10.0 0.00 0.05 0.05 86 1012.0
20260902212005 57 267 6.0 12.0 0.00 0.05 0.05 86 1012.0
20260902211005 57 263 6.0 13.0 0.00 0.05 0.05 86 1012.0
20260902210503 57 269 6.0 11.0 0.00 0.05 0.05 85 1012.0
20260902210005 57 256 7.0 12.0 0.00 0.05 0.05 85 1012.0
20260902205503 57 265 7.0 12.0 0.00 0.05 0.05 85 1012.0
20260902205005 57 273 6.0 12.0 0.00 0.05 0.05 85 1012.0
20260902204503 57 266 5.0 9.0 0.00 0.05 0.05 85 1012.0
20260902204004 57 263 5.0 9.0 0.00 0.05 0.05 85 1012.0
20260902203504 57 267 6.0 11.0 0.00 0.05 0.05 84 1012.0
20260902203004 57 266 5.0 13.0 0.00 0.05 0.05 83 1012.0
20260902202504 57 261 3.0 13.0 0.00 0.05 0.05 84 1012.0
20260902202005 57 284 1.0 6.0 0.00 0.05 0.05 85 1012.0
20260902201005 56 269 3.0 8.0 0.00 0.05 0.05 87 1012.0